Location: Beugnon
(47.6222°N, 3.7850°E)
Time: 21:05:14
(UTC+00:00)

SL-16 R/B - Pass Details

Date: 09 April 2020
Orbit: 842 x 846 km, 71.0° (Epoch: 23 May)

Event Time Altitude Azimuth Distance (km) Brightness Sun altitude
Rises 21:28:23 0° 337° (NNW) 3,416 6.5 -26.6°
Reaches altitude 10° 21:31:16 10° 350° (N) 2,478 5.4 -26.9°
Maximum altitude 21:35:57 26° 46° (NE) 1,629 3.7 -27.4°
Enters shadow 21:36:40 25° 58° (ENE) 1,654 3.6 -27.4°
